Regional Weather Roundup
Issued by NWS

Home | Current Version | Previous Version | Text Only | Print | Product List | Glossary Off
Versions: 1 2 3 4 5 6 7 8 9 10 11 12 13 14 15 16 17 18 19 20 21 22 23 24 25 26 27 28 29 30 31 32 33 34 35 36 37 38 39 40 41 42 43 44 45 46 47 48 49 50

000
ASUS43 KDMX 020004
RWRIA

WEATHER ROUNDUP FOR IOWA
NATIONAL WEATHER SERVICE DES MOINES IA
  ISSUED BY NWS QUAD CITIES IA IL
600 PM CST SUN FEB 01 2015

NOTE: "FAIR" INDICATES FEW OR NO CLOUDS BELOW 12,000 FEET WITH NO
SIGNIFICANT WEATHER AND/OR OBSTRUCTIONS TO VISIBILITY.

* - THESE STATIONS ARE NOT NWS STATIONS...THUS NOT UNDER NWS
QUALITY CONTROL.  THEY ALSO DO NOT REPORT WEATHER SUCH
AS PRECIPITATION OR FOG.

IAZ001>003-012>014-020>022-031>034-043>046-020100-
   NORTHWEST IOWA

CITY           SKY/WX    TMP DP  RH WIND       PRES   REMARKS
CARROLL *      CLOUDY    12   9  85 N23G30    30.15R HAZE    WCI  -7
CHEROKEE *     CLOUDY    12   7  80 N16G22    30.22R WCI  -4
6HR MIN TEMP:  12; 6HR MAX TEMP:  14;

DENNISON *     LGT SNOW  12   9  85 N20       30.17R WCI  -6
SIOUX CITY     LGT SNOW   9   4  80 NW18      30.28R WCI -10
6HR MIN TEMP:   9; 6HR MAX TEMP:  13; 6HR PCP: TRACE;

SPENCER        PTCLDY    12   4  70 N18       30.20R WCI  -6
6HR MIN TEMP:  12; 6HR MAX TEMP:  15; 6HR PCP: TRACE;

$$

IAZ055>058-069>071-079>083-090>094-020100-
   SOUTHWEST IOWA

CITY           SKY/WX    TMP DP  RH WIND       PRES   REMARKS
ATLANTIC *     CLOUDY    14   9  79 N22G28    30.15R HAZE    WCI  -4
AUDUBON *      LGT SNOW  12   9  85 N20G28    30.14R WCI  -6
CLARINDA *     LGT SNOW  18  14  86 N25G35    30.15R WCI  -1
COUNCIL BLFS * LGT SNOW  10   9  92 NW18G24   30.18R WCI  -8
CRESTON *      LGT SNOW  14  10  85 N21G30    30.08R WCI  -4
HARLAN *       LGT SNOW  14  12  92 N18G24    30.20R WCI  -3
LAMONI         LGT SNOW  17  12  80 N22G33    30.03R WCI   0
6HR MIN TEMP:  17; 6HR MAX TEMP:  31; 6HR PCP:  0.02;

$$

IAZ047>049-059>061-072>074-084-020100-
   CENTRAL IOWA

CITY           SKY/WX    TMP DP  RH WIND       PRES   REMARKS
AMES           LGT SNOW  14   9  80 N21       30.11R WCI  -4
6HR MIN TEMP:  14; 6HR MAX TEMP:  19; 6HR PCP: TRACE;

BOONE *        CLOUDY    12  10  92 N22G31    30.10R FOG     WCI  -7
CHARITON *     LGT SNOW  16  12  86 N22G31    30.04R WCI  -2
DES MOINES     LGT SNOW  16  10  77 N20G31    30.10R BLWGSNOWWCI  -1
6HR MIN TEMP:  16; 6HR MAX TEMP:  22; 6HR PCP:  0.01;

MARSHALLTOWN   LGT SNOW  13  10  88 N25G33    30.07R FOG     WCI  -7
6HR MIN TEMP:  13; 6HR MAX TEMP:  18; 6HR PCP: TRACE;

PERRY *          N/A     14  11  88 N21G30    30.13R FOG     WCI  -4
6HR MIN TEMP:  14; 6HR MAX TEMP:  21;

$$

IAZ004>006-015-016-023>025-035-036-020100-
   NORTH CENTRAL IOWA

CITY           SKY/WX    TMP DP  RH WIND       PRES   REMARKS
ALGONA *       MOCLDY    12   7  79 N15       30.17R WCI  -4
CLARION *      CLOUDY    12   7  79 N18G25    30.13R WCI  -5
ESTHERVILLE    PTCLDY    10   4  76 N20       30.19R WCI  -9
6HR MIN TEMP:  10; 6HR MAX TEMP:  13; 6HR PCP: TRACE;

FORT DODGE *   PTCLDY    12   3  67 CALM      30.15R
6HR MIN TEMP:  12; 6HR MAX TEMP:  18;

MASON CITY     MOCLDY    12   4  70 N21       30.13R WCI  -7
6HR MIN TEMP:  12; 6HR MAX TEMP:  16; 6HR PCP:  0.01;

WEBSTER CITY * MOCLDY    12  12 100 N23       30.11R FOG     WCI  -7
IOWA FALLS *   LGT SNOW  13   9  84 N17G24    30.10R WCI  -4
6HR MIN TEMP:  13; 6HR MAX TEMP:  18;

$$

IAZ007>011-017>019-026>030-037>042-050>054-066-020100-
   NORTHEAST IOWA

CITY           SKY/WX    TMP DP  RH WIND       PRES   REMARKS
CEDAR RAPIDS   LGT SNOW  15  11  83 N25G38    29.98R VSB 1   WCI  -4
6HR MIN TEMP:  15; 6HR MAX TEMP:  20; 6HR PCP:  0.02;

CHARLES CITY * CLOUDY    12   7  79 N20G32    30.09R WCI  -6
CLINTON *      CLOUDY   N/A N/A N/A N30       29.90R VSB 3/4
DECORAH *      LGT SNOW  12   7  79 N12G21    30.06R WCI  -2
DUBUQUE        CLOUDY    12   8  84 N25G37    29.94R FOG     WCI  -8
6HR MIN TEMP:  12; 6HR MAX TEMP:  18; 6HR PCP:  0.06;

WATERLOO       LGT SNOW  14  10  84 N21       30.07R FOG     WCI  -4
6HR MIN TEMP:  14; 6HR MAX TEMP:  17; 6HR PCP: TRACE;

$$

IAZ064-065-067-068-078-020100-
   EAST CENTRAL IOWA

CITY           SKY/WX    TMP DP  RH WIND       PRES   REMARKS
DAVENPORT      SNOW      15  11  83 N26G36    29.90R VSB 1/2 WCI  -4
6HR MIN TEMP:  15; 6HR MAX TEMP:  24; 6HR PCP: TRACE;

IOWA CITY      LGT SNOW  17  12  80 N18G31    29.99R WCI   1
6HR MIN TEMP:  17; 6HR MAX TEMP:  23; 6HR PCP: TRACE;

QUAD CITIES    LGT SNOW  17  12  80 N18G28    29.89R VSB 1   WCI   1
6HR MIN TEMP:  17; 6HR MAX TEMP:  27; 6HR PCP:  1.01;

$$

IAZ062-063-075>077-085>089-095>099-020100-
   SOUTHEAST IOWA

CITY           SKY/WX    TMP DP  RH WIND       PRES   REMARKS
BURLINGTON     LGT SNOW  19  16  88 N22G32    29.88R FOG     WCI   2
6HR MIN TEMP:  19; 6HR MAX TEMP:  33; 6HR PCP:  0.01;

FAIRFIELD *    LGT SNOW  18  14  86 N21G30    29.97R VSB 1   WCI   1
FORT MADISON * LGT SNOW  19  16  86 N20G33    29.89R WCI   4
KEOKUK *       LGT SNOW  21  19  93 N21       29.89R WCI   6
OTTUMWA        LGT SNOW  17  12  80 N28G35    29.99R WCI  -2
6HR MIN TEMP:  17; 6HR MAX TEMP:  23; 6HR PCP: TRACE;

WASHINGTON *   LGT SNOW  18  18 100 N21G30    29.96R WCI   1
$$

ABBREVIATIONS USED IN REMARKS
   TC - TEMPERATURES IN CELSIUS
  WCI - WIND CHILL INDEX
   HX - HEAT INDEX
  VSB - VISIBILITY
$$



USA.gov is the U.S. government's official web portal to all federal, state and local government web resources and services.